星链-1191 (STARLINK-1191 )

导读

STARLINK-1191是美国SpaceX公司星链(Starlink)卫星互联网星座的一员,于2020年2月17日发射升空。作为星链项目低轨星座组网的组成部分,它运行在近地轨道,旨在为全球提供高速低延迟的互联网接入服务,重点覆盖地面网络难以抵达的偏远区域,助力缩小全球数字鸿沟,推动全球互联,目前已在轨参与星座组网运营。

基本信息
目录编号:
45222
目录名称:
STARLINK-1191
国际标识:
2020-012AW
轨道中心:
EARTH
卫星名称:
星链-1191
卫星全名:
星链-1191 (STARLINK-1191 )
卫星状态:
在轨 (已飞行2401 天)
发射日期:
2020-02-17 UTC
国别 :
美国 (US)
星等 :
--
该卫星已列入 空间交会检测服务 Space Conjunction Data Service (SCDS) ,当前飞行风险评估等级: 无高风险
轨道信息
数据来源 国际轨道数据
星历时间: 2026-09-13T20:33:29+0800
12小时前
查看轨道信息
半长轴: 6788.349km
偏心率: 0.0001609
轨道倾角: 53.150°
近地点辐角 127.446°
升交点赤经 193.559°
平近点角 232.670°
近地点: 409.119km
远地点: 411.305km
周期: 92.770分钟
每日圈数: 15.522318
详细信息
固有亮度:
5
最大亮度:
2.5
卫星平台:
Starlink V1.0
覆盖范围:
全球
运营商:
太空探索技术公司
运营商所在国:
美国
制造商(研发单位):
太空探索技术公司
制造商所在国:
美国
使用方式:
暂无
卫星简介
星链(Starlink)计划是由太空探索技术公司(SpaceX)提出的一个巨型低轨卫星互联网星座项目,计划在2019年至2024年间在太空搭建由约1.2万颗卫星组成的“星链”网络,其中1584颗将部署在地球上空550千米处的近地轨道,并从2020年开始工作。该卫星仍在工作。
2D轨道图
3D轨道图
轨道高度分析图
轨道倾角分析图
轨道综合分析图
查看轨道综合分析图
与全量物体交会距离演化趋势
与全量物体交会风险概率演化趋势